Change the Weather History Date:

Thursday, November 21, 2013

  Actual Average Record
Temperature  
Mean Temperature 82 °F 68 °F  
Max Temperature 88 °F 78 °F 93 °F (2007)
Min Temperature 75 °F 57 °F 32 °F (1906)
Degree Days  
Heating Degree Days 0 2  
Month to date heating degree days 21 28  
Since 1 July heating degree days 21 33  
Cooling Degree Days 17 5  
Month to date cooling degree days 167 148  
Year to date cooling degree days 4532 4330  
Growing Degree Days 31 (Base 50)    
Moisture  
Dew Point 72 °F    
Average Humidity 75    
Maximum Humidity 94    
Minimum Humidity 55    
Precipitation  
Precipitation 0.00 in 0.03 in 0.71 in (1957)
Month to date precipitation 0.74 0.66  
Year to date precipitation 13.05 20.78  
Sea Level Pressure  
Sea Level Pressure 29.94 in    
Wind  
Wind Speed 14 mph (SSE)    
Max Wind Speed 23 mph    
Max Gust Speed 29 mph    
Visibility 10 miles    
Events      
T = Trace of Precipitation, MM = Missing Value Source: NWS Daily Summary

Daily Weather History Graph

Daily Weather History Graph

Search for Another Location

Airport or City:

Trip Planner

Search our weather history database for the weather conditions in past years. The results will help you decide how hot, cold, wet, or windy it might be!

Date:

Astronomy

Nov. 21, 2013 Rise Set
Actual Time 6:56 AM CST 5:41 PM CST
Civil Twilight 6:31 AM CST 6:06 PM CST
Nautical Twilight 6:03 AM CST 6:34 PM CST
Astronomical Twilight 5:35 AM CST 7:02 PM CST
Moon 9:16 PM CST (11/21) 10:05 AM CST (11/21)
Length of Visible Light 11h 34m
Length of Day
10h 45m
Waning Gibbous, 85% of the Moon is Illuminated
Nov 21
Waning Gibbous
Nov 25
Last Quarter
Dec 2
New
Dec 9
First Quarter
Dec 17
Full

Hourly Weather History & Observations

Time (CST) Temp. Heat Index Dew Point Humidity Pressure Visibility Wind Dir Wind Speed Gust Speed Precip Events Conditions
12:15 AM 75.2 °F - 73.4 °F 94% 29.92 in 10.0 mi SE 9.2 mph - N/A   Overcast
12:53 AM 75.0 °F - 72.0 °F 90% 29.91 in 10.0 mi SE 12.7 mph - N/A   Scattered Clouds
12:59 AM 75.2 °F - 71.6 °F 89% 29.92 in 10.0 mi SE 11.5 mph - N/A   Mostly Cloudy
1:53 AM 75.0 °F - 73.0 °F 94% 29.92 in 10.0 mi SSE 9.2 mph - N/A   Overcast
2:53 AM 75.0 °F - 73.0 °F 94% 29.91 in 10.0 mi SSE 10.4 mph - N/A   Overcast
3:53 AM 75.0 °F - 73.0 °F 94% 29.90 in 10.0 mi SSE 9.2 mph - N/A   Mostly Cloudy
4:53 AM 75.0 °F - 73.0 °F 94% 29.89 in 10.0 mi SE 12.7 mph - N/A   Mostly Cloudy
5:19 AM 75.2 °F - 73.4 °F 94% 29.90 in 10.0 mi SSE 11.5 mph - N/A   Mostly Cloudy
5:29 AM 75.2 °F - 73.4 °F 94% 29.90 in 10.0 mi SE 9.2 mph - N/A   Mostly Cloudy
5:36 AM 75.2 °F - 73.4 °F 94% 29.91 in 10.0 mi SSE 11.5 mph - N/A   Mostly Cloudy
5:53 AM 75.0 °F - 72.0 °F 90% 29.91 in 10.0 mi SSE 11.5 mph - N/A   Overcast
6:28 AM 75.2 °F - 71.6 °F 89% 29.92 in 10.0 mi SSE 9.2 mph - N/A   Overcast
6:35 AM 75.2 °F - 71.6 °F 89% 29.92 in 10.0 mi SSE 10.4 mph - N/A   Overcast
6:53 AM 75.9 °F - 72.0 °F 87% 29.93 in 10.0 mi SSE 12.7 mph - N/A   Overcast
7:53 AM 75.9 °F - 73.0 °F 91% 29.94 in 10.0 mi SSE 13.8 mph - N/A   Overcast
8:53 AM 78.1 °F - 72.0 °F 81% 29.96 in 10.0 mi SSE 16.1 mph - N/A   Overcast
9:04 AM 78.8 °F - 71.6 °F 78% 29.97 in 10.0 mi SSE 15.0 mph 24.2 mph N/A   Mostly Cloudy
9:21 AM 78.8 °F - 71.6 °F 78% 29.97 in 10.0 mi SSE 18.4 mph 25.3 mph N/A   Mostly Cloudy
9:28 AM 78.8 °F - 71.6 °F 78% 29.97 in 10.0 mi SSE 17.3 mph 24.2 mph N/A   Mostly Cloudy
9:53 AM 80.1 °F 83.8 °F 72.0 °F 76% 29.97 in 10.0 mi SSE 15.0 mph - N/A   Mostly Cloudy
10:44 AM 82.4 °F 87.2 °F 71.6 °F 70% 29.96 in 10.0 mi SSE 21.9 mph 28.8 mph N/A   Scattered Clouds
10:53 AM 84.0 °F 89.0 °F 71.1 °F 65% 29.96 in 10.0 mi SSE 16.1 mph 26.5 mph N/A   Scattered Clouds
11:17 AM 84.2 °F 89.6 °F 71.6 °F 66% 29.95 in 10.0 mi SSE 19.6 mph 25.3 mph N/A   Mostly Cloudy
11:31 AM 84.2 °F 88.4 °F 69.8 °F 62% 29.95 in 10.0 mi SSE 17.3 mph 25.3 mph N/A   Mostly Cloudy
11:53 AM 86.0 °F 90.7 °F 70.0 °F 59% 29.94 in 10.0 mi SSE 20.7 mph 28.8 mph N/A   Mostly Cloudy
12:53 PM 86.0 °F 90.7 °F 70.0 °F 59% 29.90 in 10.0 mi SSE 18.4 mph 25.3 mph N/A   Mostly Cloudy
1:53 PM 87.1 °F 92.0 °F 70.0 °F 57% 29.89 in 10.0 mi SSE 15.0 mph 24.2 mph N/A   Overcast
2:53 PM 87.1 °F 92.0 °F 70.0 °F 57% 29.88 in 10.0 mi SE 17.3 mph 21.9 mph N/A   Partly Cloudy
3:53 PM 86.0 °F 90.7 °F 70.0 °F 59% 29.88 in 10.0 mi SSE 17.3 mph 23.0 mph N/A   Clear
4:53 PM 84.0 °F 88.4 °F 70.0 °F 63% 29.90 in 10.0 mi SE 18.4 mph 25.3 mph N/A   Clear
5:53 PM 81.0 °F 84.4 °F 70.0 °F 69% 29.92 in 10.0 mi SE 13.8 mph 20.7 mph N/A   Clear
6:53 PM 79.0 °F - 71.1 °F 77% 29.94 in 10.0 mi SE 13.8 mph - N/A   Clear
7:19 PM 78.8 °F - 71.6 °F 78% 29.96 in 10.0 mi SE 13.8 mph - N/A   Mostly Cloudy
7:53 PM 79.0 °F - 72.0 °F 79% 29.97 in 10.0 mi SE 17.3 mph 25.3 mph N/A   Mostly Cloudy
8:53 PM 79.0 °F - 73.0 °F 82% 29.99 in 10.0 mi SSE 12.7 mph 21.9 mph N/A   Overcast
9:53 PM 78.1 °F - 73.0 °F 84% 30.01 in 10.0 mi SE 11.5 mph - N/A   Overcast
10:17 PM 78.8 °F - 73.4 °F 83% 30.01 in 10.0 mi SSE 10.4 mph - N/A   Overcast
10:53 PM 78.1 °F - 73.0 °F 84% 30.01 in 10.0 mi SSE 11.5 mph - N/A   Mostly Cloudy
11:16 PM 78.8 °F - 73.4 °F 83% 30.01 in 10.0 mi SSE 11.5 mph - N/A   Mostly Cloudy
11:29 PM 77.0 °F - 73.4 °F 89% 30.01 in 10.0 mi SSE 9.2 mph - N/A   Scattered Clouds
11:53 PM 77.0 °F - 73.9 °F 90% 30.01 in 10.0 mi SE 11.5 mph - N/A   Mostly Cloudy